Twin Falls, ID

3:25 AM MST on February 25, 2018 (GMT -0700)
Joslin Field-Magic Valley Regional

Weather History for KTWF - December, 2012

Change the Weather History Date:

Saturday, December 29, 2012

  Actual Average Record
Temperature  
Mean Temperature 14 °F -  
Max Temperature 24 °F 36 °F 54 °F (1998)
Min Temperature 3 °F 20 °F -5 °F (1985)
Degree Days  
Heating Degree Days 51 37  
Month to date heating degree days 891 1056  
Since 1 July heating degree days 1945 2494  
Cooling Degree Days 0 0  
Month to date cooling degree days 0 0  
Year to date cooling degree days 970 680  
Moisture  
Dew Point 10 °F    
Average Humidity 78    
Maximum Humidity 88    
Minimum Humidity 68    
Precipitation  
Precipitation T in 0.03 in 0.45 in (2010)
Month to date precipitation 1.76 1.20  
Year to date precipitation 10.10 10.63  
Sea Level Pressure  
Sea Level Pressure 30.16 in    
Wind  
Wind Speed 6 mph (ESE)    
Max Wind Speed 10 mph    
Max Gust Speed 13 mph    
Visibility 9 miles    
Events Snow    
T = Trace of Precipitation, MM = Missing Value Source: NWS Daily Summary

Daily Weather History Graph

Daily Weather History Graph

Search for Another Location

Airport or City:

Trip Planner

Search our weather history database for the weather conditions in past years. The results will help you decide how hot, cold, wet, or windy it might be!

Date:

Astronomy

Dec. 29, 2012 Rise Set
Actual Time 8:07 AM MST 5:13 PM MST
Civil Twilight 7:35 AM MST 5:45 PM MST
Nautical Twilight 6:59 AM MST 6:20 PM MST
Astronomical Twilight 6:25 AM MST 6:55 PM MST
Moon 6:52 PM MST (12/29) 8:41 AM MST (12/29)
Length of Visible Light 10h 10m
Length of Day
9h 06m
Full, 98% of the Moon is Illuminated
Dec 29
Full
Jan 4
Last Quarter
Jan 11
New
Jan 18
First Quarter
Jan 26
Full

Hourly Weather History & Observations

Time (MST) Temp. Windchill Dew Point Humidity Pressure Visibility Wind Dir Wind Speed Gust Speed Precip Events Conditions
12:53 AM 7.0 °F -5.7 °F 1.0 °F 77% 30.25 in 10.0 mi ESE 8.1 mph - N/A   Clear
1:53 AM 9.0 °F 2.4 °F 3.0 °F 77% 30.24 in 10.0 mi SSW 3.5 mph - N/A   Clear
2:53 AM 8.1 °F -3.2 °F 1.9 °F 76% 30.25 in 10.0 mi East 6.9 mph - N/A   Clear
3:53 AM 7.0 °F -6.6 °F 1.0 °F 77% 30.25 in 10.0 mi ESE 9.2 mph - N/A   Clear
4:53 AM 10.0 °F -0.9 °F 3.9 °F 76% 30.27 in 10.0 mi SE 6.9 mph - N/A   Clear
5:53 AM 10.0 °F -0.9 °F 3.9 °F 76% 30.28 in 10.0 mi East 6.9 mph - N/A   Clear
6:53 AM 12.0 °F 0.5 °F 6.1 °F 77% 30.25 in 10.0 mi East 8.1 mph - N/A   Mostly Cloudy
7:53 AM 12.9 °F 1.6 °F 6.1 °F 74% 30.25 in 10.0 mi ESE 8.1 mph - N/A   Overcast
8:53 AM 10.9 °F 0.2 °F 3.9 °F 73% 30.25 in 10.0 mi East 6.9 mph - N/A   Partly Cloudy
9:53 AM 14.0 °F 3.9 °F 8.1 °F 77% 30.25 in 10.0 mi ESE 6.9 mph - N/A   Scattered Clouds
10:53 AM 16.0 °F 6.3 °F 9.0 °F 74% 30.23 in 10.0 mi East 6.9 mph - N/A   Clear
11:53 AM 18.0 °F 12.7 °F 10.0 °F 71% 30.22 in 10.0 mi ENE 3.5 mph - N/A   Clear
12:53 PM 19.9 °F 13.4 °F 12.0 °F 71% 30.18 in 10.0 mi ENE 4.6 mph - N/A   Clear
1:53 PM 21.9 °F 13.4 °F 12.0 °F 66% 30.14 in 10.0 mi ENE 6.9 mph - N/A   Clear
2:53 PM 21.0 °F 12.4 °F 12.9 °F 71% 30.13 in 10.0 mi East 6.9 mph - N/A   Clear
4:53 PM 21.9 °F 15.7 °F 14.0 °F 72% 30.09 in 10.0 mi ESE 4.6 mph - N/A   Overcast
5:53 PM 21.9 °F 13.4 °F 15.1 °F 75% 30.09 in 10.0 mi ESE 6.9 mph - N/A   Overcast
6:53 PM 21.9 °F 15.7 °F 15.1 °F 75% 30.08 in 10.0 mi SE 4.6 mph - N/A   Overcast
7:53 PM 21.0 °F 16.2 °F 12.9 °F 71% 30.07 in 10.0 mi WSW 3.5 mph - N/A   Overcast
8:53 PM 23.0 °F 17.0 °F 14.0 °F 68% 30.07 in 10.0 mi WSW 4.6 mph - N/A   Overcast
9:53 PM 23.0 °F 15.8 °F 14.0 °F 68% 30.06 in 10.0 mi WSW 5.8 mph - N/A   Overcast
10:53 PM 23.0 °F 15.8 °F 15.1 °F 72% 30.08 in 7.0 mi West 5.8 mph - 0.00 in Snow Light Snow
11:05 PM 21.2 °F 12.6 °F 15.8 °F 80% 30.00 in 2.5 mi West 6.9 mph - 0.00 in Snow Light Snow
11:23 PM 21.2 °F 14.9 °F 17.6 °F 86% 30.00 in 1.5 mi West 4.6 mph - 0.00 in Snow Light Snow
11:53 PM 21.9 °F 15.7 °F 17.1 °F 82% 30.08 in 1.5 mi West 4.6 mph - 0.00 in Snow Light Snow